Preview of NWS' New Version of Forecast
This preview is not operational and should not be used for support decisions.

Regional Weather Roundup (RWR)

Issued by National Weather Service (NWS)

                            
000
ASUS45 KABQ 241910
RWRNM 
NEW MEXICO REGIONAL WEATHER ROUNDUP
NATIONAL WEATHER SERVICE ALBUQUERQUE NM
100 PM MDT SAT AUG 24 2019

NOTE: "FAIR" MEANS FEW OR NO CLOUDS BELOW 12,000 FEET AGL WITH NO
       SIGNIFICANT WEATHER OR OBSTRUCTIONS TO VISION.

      THIS PRODUCT IS RELEASED AS TWO VERSIONS.  ONE VERSION NEAR
      THE TOP OF THE HOUR CONTAINING PRELIMINARY DATA FROM ALBUQUERQUE
      AND OTHER STATIONS.  A FINAL VERSION WITH ADDITIONAL DATA IS 
      ISSUED ABOUT 10 MINUTES AFTER THE HOUR.
 
NMZ501-503-504-510>518-242000-
NORTHWEST PLATEAU/NORTHCENTRAL MOUNTAINS
  
CITY           SKY/WX    TMP DP  RH WIND       PRES   REMARKS
FARMINGTON     FAIR      88  29  12 NW16G23   30.13F                  
LOS ALAMOS       N/A     80  41  24 SE5       30.25F                  
SANTA FE       FAIR      87  38  17 S10G18    30.18F                  
TAOS           FAIR      83  39  21 SW10G18   30.23F                  
ANGEL FIRE     FAIR      74  35  23 W16G22    30.32S                  

$$
NMZ402-403-502-505>509-242000-
WESTCENTRAL MOUNTAINS/SOUTHWEST MOUNTAINS
  
CITY           SKY/WX    TMP DP  RH WIND       PRES   REMARKS
GALLUP         FAIR      88  33  14 W13G20    30.24F                  
GRANTS         FAIR      87  29  12 N7G21     30.24F                  
SILVER CITY    PTSUNNY   87  52  30 SE13G18   30.18F                  

$$
NMZ407-409-411-412-242000-
SOUTHERN DESERTS
  
CITY           SKY/WX    TMP DP  RH WIND       PRES   REMARKS
DEMING         FAIR      86  52  30 W7        30.11F                  
LAS CRUCES     FAIR      88  51  27 S7        30.12F                  
HOLLOMAN AFB   FAIR      89  54  29 S5        30.09F                  
ALAMOGORDO     FAIR      88  52  29 SW6       30.09F                  
T OR C         FAIR      91  46  21 SE7       30.11F                  

$$
NMZ519>523-242000-
CENTRAL VALLEYS/CENTRAL HIGHLANDS
  
CITY           SKY/WX    TMP DP  RH WIND       PRES   REMARKS
ALBUQUERQUE    FAIR      85  39  19 CALM      30.14F                  
DOUBLE EAGLE   MOSUNNY   86  43  22 VRB7      30.18F                  
MORIARTY ARPT  FAIR      90  34  13 NW5       30.19F                  
CLINES CORNERS FAIR      84  37  18 MISG      30.26F                  
BELEN          FAIR      89  36  15 E7        30.13F                  
SOCORRO        FAIR      91  40  16 E3        30.10F                  

$$
NMZ524>526-539-540-242000-
SOUTHCENTRAL MOUNTAINS
  
CITY           SKY/WX    TMP DP  RH WIND       PRES   REMARKS
RUIDOSO        FAIR      82  37  20 SW5       30.27F                  

$$
NMZ527>531-242000-
NORTHEAST HIGHLANDS/NORTHEAST PLAINS
  
CITY           SKY/WX    TMP DP  RH WIND       PRES   REMARKS
LAS VEGAS      FAIR      85  39  19 VRB6G26   30.19F                  
RATON          FAIR      85  42  22 S9        30.11F                  
CLAYTON        FAIR      81  60  48 S20G28    30.04F                  

$$
NMZ532>537-242000-
EASTCENTRAL PLAINS
  
CITY           SKY/WX    TMP DP  RH WIND       PRES   REMARKS
SANTA ROSA     FAIR      87  63  43 S9        30.05F                  
TUCUMCARI      FAIR      88  59  37 SW6G18    29.99F                  
CANNON AFB     FAIR      84  61  45 SW13      30.06F                  
CLOVIS AIRPORT FAIR      85  63  47 SW9G17    30.06F                  

$$
NMZ028-029-538-242000-
SOUTHEAST PLAINS
  
CITY           SKY/WX    TMP DP  RH WIND       PRES   REMARKS
ROSWELL        FAIR      94  54  25 W7        30.00F                  
ARTESIA        FAIR      91  55  29 S10G20    30.02F                  
CARLSBAD       FAIR      91  54  28 S6        29.99F                  
HOBBS          SUNNY     91  57  31 S10       30.02F                  


$$